Regional Weather Roundup
Issued by NWS

Home | Current Version | Previous Version | Text Only | Print | Product List | Glossary On
Versions: 1 2 3 4 5 6 7 8 9 10 11 12 13 14 15 16 17 18 19 20 21 22 23 24 25 26 27 28 29 30 31 32 33 34 35 36 37 38 39 40 41 42 43 44 45 46 47 48 49 50
000
ASUS43 KLMK 310510
RWRKY
KENTUCKY REGIONAL WEATHER ROUNDUP
NATIONAL WEATHER SERVICE LOUISVILLE KY
100 AM EDT FRI OCT 31 2014

NOTE "FAIR" INDICATES FEW OR NO CLOUDS BELOW 12,000 FEET
WITH NO SIGNIFICANT WEATHER AND/OR OBSTRUCTIONS TO VISIBILITY.

KYZ001>023-026-027-061>063-070>075-310600-
WESTERN AND SOUTH CENTRAL KENTUCKY

CITY           SKY/WX    TMP DP  RH WIND       PRES   REMARKS
PADUCAH        LGT RAIN  51  50  96 S5        30.01F
HENDERSON      CLOUDY    52  43  71 CALM      30.03F
OWENSBORO      MOCLDY    49  43  80 CALM      30.04F
HOPKINSVILLE   PTCLDY    51  46  82 CALM      30.03R
BOWLING GREEN  CLOUDY    48  41  76 CALM      30.04F
GLASGOW        CLOUDY    44  44 100 CALM      30.04S
$$

KYZ024-025-028>034-038-045-046-053-310600-
NORTH CENTRAL KENTUCKY

CITY           SKY/WX    TMP DP  RH WIND       PRES   REMARKS
LOUISVILLE/SDF CLOUDY    50  38  63 S7        30.04S
LOUISVILLE/LOU CLOUDY    49  38  65 CALM      30.05S
FORT KNOX      MOCLDY    44  41  88 N3        30.03S
$$

KYZ035>037-039>044-047>052-055>060-089>105-310600-
NORTHEAST KENTUCKY

CITY           SKY/WX    TMP DP  RH WIND       PRES   REMARKS
LEXINGTON      MOCLDY    42  37  82 SE5       30.03F
COVINGTON      MOCLDY    45  37  73 S3        30.03F
FRANKFORT      CLOUDY    43  38  82 CALM      30.03F
$$

KYZ054-064>069-076>088-106>120-310600-
SOUTHEAST KENTUCKY

CITY           SKY/WX    TMP DP  RH WIND       PRES   REMARKS
JACKSON        CLEAR     41  33  73 CALM      30.03F
LONDON         CLEAR     43  35  73 CALM      30.03
SOMERSET       MOCLDY    37  36  93 CALM      30.05F
MIDDLESBORO    CLEAR     37  37  98 CALM      30.03S
MONTICELLO     CLEAR     35  34  96 CALM      30.06S
$$




USA.gov is the U.S. government's official web portal to all federal, state and local government web resources and services.